Regional Weather Roundup
Issued by NWS Wakefield, VA

Home | Current Version | Previous Version | Text Only | Print | Product List | Glossary Off
Versions: 1 2 3 4 5 6 7 8 9 10 11 12 13 14 15 16 17 18 19 20 21 22 23 24 25 26 27

000
ASUS41 KAKQ 222115
RWRAKQ

REGIONAL WEATHER ROUNDUP
NATIONAL WEATHER SERVICE WAKEFIELD VA
500 PM EDT MON MAY 22 2017

Note: "fair" indicates few or no clouds below 12,000 feet with no
significant weather and/or obstructions to visibility. * = Denotes
station may not report precipitation (e.g., rain,snow,etc.),
thunder or fog.

VAZ042-051-052>054-056-222200-
NORTHERN VIRGINIA

CITY           SKY/WX    TMP DP  RH WIND       PRES   REMARKS
WASH NATIONAL  CLOUDY    71  63  75 S5        29.95F
DULLES         CLOUDY    71  61  70 CALM      29.95S
FORT BELVOIR   CLOUDY    69  62  80 SE6       29.96R
QUANTICO       PTSUNNY   69  64  84 S6        29.96S
FREDERICKSBRG* CLOUDY    71  67  86 S3        29.95R
STAFFORD*      PTSUNNY   70  66  88 CALM      29.99S
WARRENTON      PTSUNNY   74  61  63 CALM      29.95R
CULPEPER*      CLOUDY    74  66  75 CALM      29.95F
MANASSAS*        N/A     73  64  73 SW3       29.96R
LEESBURG*      CLOUDY    72  64  78 SW5       29.96S
WINCHESTER     CLOUDY    72  63  73 SE6       29.94S
FRONT ROYAL*   MOCLDY    73  64  73 NE7       29.93R
LURAY*         MOCLDY    79  64  61 CALM      29.92F
$$

VAZ048-049-060>072-079>083-222200-
CENTRAL AND SOUTH CENTRAL VIRGINIA

CITY           SKY/WX    TMP DP  RH WIND       PRES   REMARKS
RICHMOND       CLOUDY    71  67  87 N5        29.95S
CHESTERFIELD*  CLOUDY   N/A N/A N/A CALM      29.96F
PETERSBURG*    CLOUDY    71  65  82 CALM      29.96S
HANOVER        CLOUDY    70  64  81 MISG      29.97F
TAPPAHANNOCK*  MOSUNNY   72  69  90 W5        29.97S
QUINTON*       CLOUDY    70  69  98 NW7       29.95R
CHARLOTTSVILLE CLOUDY    77  66  68 VRB6      29.92F
GORDONSVILLE*  MOCLDY    76  67  74 SW3       29.93F
ORANGE*        CLOUDY    73  64  73 S3        29.94S
LOUISA*        CLOUDY    75  70  83 S3        29.94F
BUMPASS*       CLOUDY    72  67  86 CALM      29.95F
FARMVILLE*     PTSUNNY   78  67  68 CALM      29.93S
CREWE*         FAIR      74  67  77 CALM      29.95S
FORT PICKETT*  MOCLDY    74  67  79 W6        29.96S
CHASE CITY*    FAIR      75  68  80 CALM      29.96S
CLARKSVILLE*   FAIR      75  68  78 CALM      29.95F
SOUTH HILL*    MOSUNNY   73  68  85 CALM      30.01F
LAWRENCEVILLE* MOCLDY    73  67  83 NW3       29.96S
EMPORIA*       CLOUDY    72  66  83 W6        29.96F
$$

VAZ088>098-222200-
SOUTHEAST VIRGINIA

CITY           SKY/WX    TMP DP  RH WIND       PRES   REMARKS
NORFOLK        CLOUDY    73  69  87 W16G26    29.88F
VIRGINIA BEACH CLOUDY    71  67  87 S6        29.88F
NORFOLK NAVAL  NOT AVBL
WEST POINT*    PTSUNNY   73  66  79 NE3       29.95F
SALUDA*        CLOUDY    68  68  98 N5        29.94F
NEWPORT NEWS   LGT RAIN  70  68  93 NW14      29.92R
LANGLEY AFB    LGT RAIN  70  70 100 N13G18    29.89R
FORT EUSTIS    CLOUDY    73  68  84 N9        29.90S
WILLIAMSBURG*  SUNNY     73  73 100 N5        29.94S
HR EXEC AP*    CLOUDY    72  68  88 NW9       29.90R
FRANKLIN*      CLOUDY    75  69  82 W9        29.93S
US460-WAKEFLD  CLOUDY    73  69  87 VRB5      29.94S
$$

VAZ020-022-025-037-045-222200-
WEST CENTRAL AND SOUTHWEST VIRGINIA

CITY           SKY/WX    TMP DP  RH WIND       PRES   REMARKS
STAUNTON*      PTSUNNY   77  59  53 SW6       29.95F
WAYNESBORO*    CLOUDY    75  62  65 SW8       29.96S
HOT SPRINGS VA CLOUDY    64  41  42 W13       30.08S
LYNCHBURG      PTSUNNY   78  62  57 VRB6      29.97S
DANVILLE       MOSUNNY   78  67  68 N3        29.95F
SOUTH BOSTON*  FAIR      78  67  69 N5        29.96S
MARTINSVILLE   CLOUDY    75  66  71 CALM      29.99F
ROANOKE        PTSUNNY   76  54  46 NW12      30.00S
BLACKSBURG     MOSUNNY   73  54  51 NW7       30.06F
DUBLIN*        MOSUNNY   74  46  37 W7        30.05S
MARION*        MOSUNNY   72  54  53 W8        30.08F
HILLSVILLE*    CLOUDY    71  56  60 NW13      30.04F
RICHLANDS*     FAIR      67  55  66 W5        30.08F
WISE*          PTSUNNY   68  54  60 N7        30.09F
ABINGDON*      CLOUDY    73  60  64 NW7       30.06S
$$

MDZ021>025-VAZ099-100-222200-
SOUTHERN MARYLAND AND THE DELMARVA PENINSULA

CITY           SKY/WX    TMP DP  RH WIND       PRES   REMARKS
PATUXENT RIVER CLOUDY    65  65 100 SE3       29.97R
BAY BRIDGE APT CLOUDY    64  63  94 CALM      29.97S
LEONARDTOWN    CLOUDY    66  63  88 CALM      29.99R
DOVER          CLOUDY    65  65 100 CALM      29.96R
GEORGETOWN     CLOUDY    70  66  87 S3        29.97S
EASTON         CLOUDY    68  64  88 CALM      30.00R
CAMBRIDGE      CLOUDY    68  66  94 NE5       29.96F
SALISBURY      LGT RAIN  70  69  97 CALM      29.96F
OCEAN CITY     LGT RAIN  67  66  97 SW7       29.98S
WALLOPS ISLAND RAIN      67  67 100 CALM      29.96F FOG
ACCOMACK*      HVY RAIN  69  56  62 E6        29.94F
$$

NCZ012>017-030>032-222200-
NORTH CENTRAL AND EASTERN NORTH CAROLINA

CITY           SKY/WX    TMP DP  RH WIND       PRES   REMARKS
ROANOKE RAPIDS FAIR      73  66  78 NW12      29.95S
RALEIGH        CLOUDY    79  67  66 VRB5      29.96F
ELIZABETH CITY CLOUDY    75  70  84 CALM      29.93R
AHOSKIE*         N/A     75  68  77 W5        29.94S
EDENTON*       CLOUDY    83  69  61 W12G20    29.92S
CURRITUCK*     CLOUDY    70  70 100 CALM      29.93S
KILL DEVIL HLS NOT AVBL
MANTEO         CLOUDY    77  69  78 S22G28    29.92F
CAPE HATTERAS  CLOUDY    79  68  69 S13       29.96F
TARBORO*       NOT AVBL
GOLDSBORO      PTSUNNY   84  67  56 W10       29.92F
WASHINGTON     SUNNY     84  68  59 NW8       29.93R
GREENVILLE     PTSUNNY   82  66  57 NW12      29.96S
NEW BERN       CLOUDY    83  72  69 S12G21    29.93F
WILMINGTON     MOSUNNY   82  70  66 SW15      29.94F
$$

VAZ048-222200-
ELSEWHERE

CITY           SKY/WX    TMP DP  RH WIND       PRES   REMARKS
HARRISBURG PA  CLOUDY    64  60  87 CALM      29.96S
BALTIMORE      CLOUDY    66  64  93 E8        29.95S
ANNAPOLIS      CLOUDY    66  65  96 SE7       29.96S
ANDREWS AFB    CLOUDY    70  63  80 SE6       29.95S
PHILADELPHIA   CLOUDY    65  62  90 CALM      29.97S
HENDERSON NC   CLOUDY    72  64  75 NW3       29.96F
GREENSBORO     CLOUDY    78  68  71 CALM      29.97S
ROCKY MOUNT    CLOUDY    81  69  67 NW9       29.94F
$$

VAZ100-222200-
MARINE

STATION/POSITION TIME  TEMP    WIND        PRES    WAVE   SWELL
                       AIR SEA DIR/SP/G            HT/PER HT/PER
                 (UTC) (F)     (DEG/KT/KT) (MB)    (FT/S) (FT/S)
CAPE MAY NJ      2048   65 62  110/  7/  7 1014.1F
LEWES DE         2048   65 62   50/  3/  3 1014.4F
15NM E FENWICK I 2050   62 58  230/  6/  8 1014.9F   3/ 7   3/ 7
OCEAN-CITY-INLET 2048   64 62  210/  4/  5 1015.0F
WACHAPREAGUE VA  2048   67 68   30/  3/  3 1013.6F
THOMAS POINT MD  2100   63 66  130/  5/  6   N/A
GOOSES REEF MD   2100   65 58   20/  4/  6 1015.5    0
COVE POINT MD    2048   65     350/  2/  3 1015.5R
SOLOMONS ISLAND  2048   65 67   90/  4/  5   N/A
BISHOPS HEAD MD  2048   67 68  130/  1/  4 1015.1R
PINEY POINT MD   2042          160/  3/  4   N/A
POTOMAC MD       2050   66      30/  4/  6 1013.7F
CAMBRIDGE MD     2048   68 69                N/A
LEWISETTA VA     2048   67 70   60/  2/  3 1014.3R
RAPPAHANNOCK LGT 2048           20/ 12/ 13 1014.3F
STINGRAY PT      2050   68      80/ 10/ 14 1012.8F
YORK RVR RNG VA  2048   69      50/ 19/ 21 1011.7F
YORKTOWN VA      2048   69 70  340/ 15/ 18 1013.0R
JAMESTOWN VA     2050   73     340/  4/  8   N/A
DOMINION TERM VA 2048   70     330/ 18/ 24 1012.2R
KIPTOPEKE VA     2048      67  110/ 16/ 19   N/A
CHES BAY BRIDGE  2048   71 67  180/ 13/ 19 1011.0F
CAPE HENRY VA    2048   69     130/  9/ 12   N/A
WILLOUBY STN VA  2048   69     320/ 19/ 21 1011.5S
S CRANEY ISL VA  2048   71     260/ 13/ 19 1012.0R
CAPE HENRY BUOY  2042      62                N/A     3/ 8
1ST LANDING BUOY 2100   69 68              1010.9    2/ 3
CAPE CHARLES BUO 2051      64                N/A     3/ 8
64NM E OF VA BCH 2050   70 69  180/ 16/ 17 1014.1F   4/ 9   3/ 9
DUCK PIER NC     2048   75 67  190/ 18/ 25 1013.7R
44100 DUCK FRF   2035      66                N/A     4/ 6
44056 DUCK FRF   2030      67                N/A     4/ 7
OREGON INLET NC  2042   76 75  170/ 17/ 22 1013.6F
HATTERAS NC      2048   78 74  170/ 11/ 17 1014.4F
DIAMOND SHLS NC  2050   77 78  190/ 14/ 17 1014.9F   4/ 8   3/ 8
CAPE LOOKOUT NC  2000   78     200/ 13/ 15 1014.9F
$$




USA.gov is the U.S. government's official web portal to all federal, state and local government web resources and services.